Volver al catálogo

STARLINK-36448

ActivoComunicacionesVLEO
NORAD 67354·PAYLOAD·🇺🇸 United States

Lanzado Jan 9, 2026 desde Cape Canaveral Space Force Station

Loading…

Próximos Pases (próximas 24 horas)

TLE

ActualizadoSource: CelesTrak SupGP

Época: Sep 15, 2026, 03:06 UTC

1 67354C 26003W   26258.12965278 -.00047606  00000+0 -17244-2 0  2581
2 67354  43.0004 237.2737 0001168 268.0002 159.7626 15.27600636    16

Sigue STARLINK-36448 en tiempo real con AllMySat

Download on the App Store